Regional Weather Roundup
Issued by NWS

Home | Current Version | Previous Version | Graphics & Text | Print | Product List | Glossary On
Versions: 1 2 3 4 5 6 7 8 9 10 11 12 13 14 15 16 17 18 19 20 21 22 23 24 25 26 27 28 29 30 31 32 33 34 35 36 37 38 39 40 41 42 43 44 45 46 47 48 49 50
000
ASUS43 KMKX 251711
RWRWI

WISCONSIN REGIONAL WEATHER ROUNDUP
NATIONAL WEATHER SERVICE MILWAUKEE/SULLIVAN WI
1200 PM CDT MON JUL 25 2016

NOTE: "FAIR" INDICATES FEW OR NO CLOUDS BELOW 12,000 FEET WITH NO
SIGNIFICANT WEATHER AND/OR OBSTRUCTIONS TO VISIBILITY.

WIZ001-002-006>008-014>016-023>028-251800-
NORTHWEST WISCONSIN

CITY           SKY/WX    TMP DP  RH WIND       PRES   REMARKS
SUPERIOR ARPT  SUNNY     79  62  55 W7        30.01F HX  80
ASHLAND        SUNNY     79  59  50 NW10G18   30.02S HX  80
HAYWARD        SUNNY     77  58  51 VRB6      30.05S
SIREN          NOT AVBL
CUMBERLAND     MOSUNNY   77  59  53 W8        30.07S
RICE LAKE      MOSUNNY   77  60  55 W9        30.07S
CHETEK         SUNNY     78  62  57 NW6       30.06S
LADYSMITH      SUNNY     77  60  55 NW10      30.06F
EAU CLAIRE     MOSUNNY   80  61  52 NW10      30.04F HX  81
MENOMONIE      MOSUNNY   81  60  49 W9        30.06S HX  81
NEW RICHMOND   MOSUNNY   79  60  52 NW5       30.07S HX  80
OSCEOLA        MOSUNNY   79  63  57 W8        30.09S HX  81
$$

WIZ003>005-009-010-017-018-251800-
NORTH CENTRAL WISCONSIN

CITY           SKY/WX    TMP DP  RH WIND       PRES   REMARKS
MANITOWISH WTR MOSUNNY   75  58  54 NW9       30.03S
ARBOR VITAE    MOSUNNY   77  59  54 NW10      30.03S
WOODRUFF       MOSUNNY   77  59  54 NW10      30.03S
RHINELANDER    MOSUNNY   77  58  51 NW7       30.04R
EAGLE RIVER    MOSUNNY   76  55  48 NW12      30.02S
LAND O LAKES   SUNNY     76  55  48 NW10G22   30.03S
PHILLIPS       MOSUNNY   75  62  64 NW8       30.04S
TOMAHAWK       MOSUNNY   75  59  56 NW9G16    30.04S
MEDFORD        MOSUNNY   75  62  62 NW8G18    30.05S
MERRILL        MOSUNNY   77  60  56 NW14      30.04R
$$

WIZ029-030-035-036-043>047-251800-
CENTRAL WISCONSIN

CITY           SKY/WX    TMP DP  RH WIND       PRES   REMARKS
WAUSAU         MOSUNNY   78  59  51 NW14      30.01S
MOSINEE        MOSUNNY   77  63  61 NW14G20   30.04S
MARSHFIELD     SUNNY     79  62  56 NW10      30.04S HX  80
STEVENS POINT  MOSUNNY   77  61  57 W12       30.03S
WAUPACA        MOSUNNY   83  61  47 W14G20    30.01R HX  83
WAUTOMA        MOSUNNY   81  64  56 NW13G20   30.02S HX  82
WISC RAPIDS    SUNNY     82  59  45 NW12      30.04S HX  82
CAMP DOUGLAS   MOSUNNY   79  66  65 NW10      30.04R HX  81
$$

WIZ011>013-019>022-031-037>040-048>050-251800-
NORTHEAST WISCONSIN

CITY           SKY/WX    TMP DP  RH WIND       PRES   REMARKS
ANTIGO         SUNNY     76  59  55 W5        30.03R
SHAWANO        SUNNY     82  63  52 W12       29.99S HX  83
OCONTO         SUNNY     80  62  53 NW7G17    29.95S HX  81
STURGEON BAY   SUNNY     79  62  56 W12G20    29.96S HX  80
GREEN BAY      SUNNY     80  67  64 NW13G21   29.97F HX  82
MANITOWOC      SUNNY     80  62  54 W12       29.98S HX  81
APPLETON       MOSUNNY   79  59  50 NW12G17   29.99S HX  80
CLINTONVILLE   MOSUNNY   81  59  47 NW15G24   29.99F HX  81
OSHKOSH        SUNNY     81  63  54 NW14G21   30.00S HX  82
$$

WIZ032>034-041-042-053>061-251800-
SOUTHWEST WISCONSIN

CITY           SKY/WX    TMP DP  RH WIND       PRES   REMARKS
LA CROSSE      SUNNY     83  63  50 NW10      30.04S HX  84
SPARTA         MOSUNNY   80  62  54 W9        30.06R HX  81
VIROQUA        MOSUNNY   79  62  56 NW8       30.07S HX  80
BOSCOBEL       MOSUNNY   85  64  49 NW10      30.05S HX  86
PRAIRIE DU CHI SUNNY     81  58  45 NW13G20   30.04F HX  81
PLATTEVILLE    SUNNY     79  67  65 NW10      30.06S HX  82
$$

WIZ056-057-062-063-064-067-068-251800-
SOUTH CENTRAL WISCONSIN

CITY           SKY/WX    TMP DP  RH WIND       PRES   REMARKS
REEDSBURG      MOSUNNY   79  63  58 W12       30.04S HX  80
BARABOO/DELLS  PTSUNNY   78  62  56 NW8       30.04S HX  80
LONE ROCK      MOSUNNY   82  65  56 N12       30.04S HX  84
MINERAL POINT  MOSUNNY   81  63  54 N10G16    30.06F HX  82
MADISON        MOSUNNY   82  64  54 NW9       30.03R HX  83
MIDDLETON      MOSUNNY   82  64  53 NW12      30.04S HX  84
WATERTOWN      SUNNY     81  65  58 NW6       30.02S HX  82
MONROE         SUNNY     81  63  54 NW8       30.04F HX  82
JANESVILLE     MOSUNNY   84  64  51 NW8       30.01F HX  86
$$

WIZ051-052-058>065-066-070>072-251800-
SOUTHEAST WISCONSIN

CITY           SKY/WX    TMP DP  RH WIND       PRES   REMARKS
MILWAUKEE      MOSUNNY   85  62  46 N10       29.99F HX  85
WAUKESHA       SUNNY     79  63  57 W10       30.02S HX  80
MILWAUKEE/TIMM MOSUNNY   82  57  42 W10       30.01S HX  82
RACINE         SUNNY     84  63  49 NW8       30.01S HX  85
BURLINGTON     SUNNY     82  65  56 NW10G16   30.01S HX  83
KENOSHA        SUNNY     83  65  54 N12G17    30.00F HX  85
FOND DU LAC    SUNNY     82  63  52 NW10      30.00S HX  83
SHEBOYGAN      SUNNY     81  62  52 NW12      29.99S HX  82
WEST BEND      MOSUNNY   81  61  50 W12       30.01S HX  81
JUNEAU         MOSUNNY   78  64  61 W8        30.03S HX  80
$$

LSZ147-162-251800-
LAKE SUPERIOR

STATION/POSITION TIME  TEMP    WIND        PRES    WAVE
                       AIR SEA DIR/SP/G            HT/PER
                 (UTC) (F)     (DEG/KT/KT) (MB)    (FT/S)
W MID LAKE BUOY  1650   63 59  250/ 14/ 16 1014.2R   2/ 4
DEVILS ISLAND    1600   65     240/ 18/ 20 1015.4R
SAXON HARBOR     1640   76      60/  1/  5 1015.9R
$$

LMZ867-665-643>646-251800-
LAKE MICHIGAN

STATION/POSITION TIME  TEMP    WIND        PRES    WAVE
                       AIR SEA DIR/SP/G            HT/PER
                 (UTC) (F)     (DEG/KT/KT) (MB)    (FT/S)
CHAMBERS ISLAND  1600   79     260/  3/  8 1013.5S
N MID LAKE BUOY  1650   70 69  260/  8/  8 1012.8R   2/ 5
NORTHPORT PIER   1640   77     300/  8/ 14 1013.2S
SISTER BAY       1606   77     310/  9/ 10   N/A
ALGOMA LAKESHORE 1613          320/ 13/ 18   N/A
KEWAUNEE LAKESHO 1600   78     290/  6/ 12 1014.1R
SHEBOYGAN LAKESH 1700   79     310/ 12/ 14 1015.1R
PORT WASHINGTON  1600   83     330/  7/ 10 1015.9
MILWAUKEE LAKESH 1610   80     320/  9/ 11   N/A
S MID LAKE BUOY  1650   72 72  330/  8/ 10 1014.9F   2/ 4
KENOSHA   LAKESH 1700   80     310/  6/ 14 1015.2S
$$

TC  - TEMPERATURE IN CELSIUS
VSB - VISIBILITY IN STATUTE MILES
WCI - WIND CHILL INDEX
HX  - HEAT INDEX




USA.gov is the U.S. government's official web portal to all federal, state and local government web resources and services.